Location: Newark
(35.1686°N, 108.2815°E)
Time: 05:01:35
(UTC+00:00)

Hubble Space Telescope - Pass Details

Date: 14 April 2020
Orbit: 536 x 540 km, 28.5° (Epoch: 30 May)

Event Time Altitude Azimuth Distance (km) Brightness Sun altitude
Rises 11:39:03 0° 259° (W) 2,669 5.6 -4.8°
Reaches altitude 10° 11:41:31 10° 248° (WSW) 1,778 4.3 -5.3°
Maximum altitude 11:45:04 29° 188° (S) 1,002 2.1 -6.0°
Drops below altitude 10° 11:48:38 10° 127° (SE) 1,775 2.8 -6.7°
Enters shadow 11:49:13 - 124° (SE) 1,975 3.0 -6.8°
